Simultaneous Nadir Overpasses (SNOs) Predictions

Prediction of SNOs between METOP-C and LANDSAT-8 Satellite Orbit:

Table of predicted SNOs for the next 14.0 days since TLE Epoch: 5/15/2021
Index Date (METOP-C) Time (METOP-C) Lat,Lon (METOP-C) SZA (METOP-C ) Date (LANDSAT-8) Time (LANDSAT-8) Lat,Lon (LANDSAT-8) SZA (LANDSAT-8 ) Distance(km) Time Diff (sec)
1 05/16/2021 05:20:20 -81.13, -40.21 115.79 05/16/2021 05:21:13 -81.12, -40.32 115.79 2.10 53
2 05/16/2021 06:10:59 81.16, 127.87 64.30 05/16/2021 06:10:38 81.15, 127.78 64.28 1.65 21
3 05/19/2021 00:54:42 -81.13, 26.21 116.41 05/19/2021 00:55:30 -81.13, 26.16 116.40 1.15 48
4 05/19/2021 01:45:21 81.15,-165.79 63.67 05/19/2021 01:44:55 81.15,-165.77 63.66 0.28 26
5 05/21/2021 20:29:04 -81.13, 92.61 117.00 05/21/2021 20:29:47 -81.13, 92.60 116.98 0.63 43
6 05/21/2021 21:19:42 81.15, -99.46 63.08 05/21/2021 21:19:11 81.15, -99.36 63.08 1.80 31
7 05/24/2021 16:03:24 -81.14, 159.37 117.49 05/24/2021 16:04:02 -81.15, 159.37 117.47 0.44 38
8 05/24/2021 16:54:04 81.15, -33.15 62.53 05/24/2021 16:53:28 81.15, -32.97 62.53 3.14 36
9 05/27/2021 11:37:46 -81.14,-134.27 117.98 05/27/2021 11:38:19 -81.14,-134.26 117.97 0.20 33



Historial Predications of SNOs between METOP-C and LANDSAT-8
